Location: Stara Lesna
(49.1528°N, 20.2911°E)
Time: 08:33:14
(UTC+02:00)

ARIANE 5 R/B - Pass Details

Date: 13 July 2020
Orbit: 749 x 794 km, 98.6° (Epoch: 05 August)

Event Time Altitude Azimuth Distance (km) Brightness Sun altitude
Rises 03:45:00 0° 14° (NNE) 3,232 7.0 -8.5°
Reaches altitude 10° 03:47:18 10° 13° (NNE) 2,308 6.1 -8.3°
Maximum altitude 03:52:24 84° 287° (WNW) 780 2.5 -7.7°
Drops below altitude 10° 03:57:31 10° 199° (SSW) 2,321 4.4 -7.1°
Enters shadow 03:58:29 - 199° (SSW) 2,706 4.8 -7.0°
